Regional Weather Roundup
Issued by NWS Newport/Morehead, NC

Current Version | Previous Version | Text Only | Print | Product List | Glossary Off
Versions: 1 2 3 4 5 6 7 8 9 10 11 12 13 14 15 16 17 18 19 20 21 22 23 24 25 26 27 28 29 30 31 32 33 34 35 36 37 38 39 40 41 42 43 44 45 46 47 48 49 50
000 ASUS42 KMHX 300413 RWRMHX WEATHER ROUNDUP FOR EASTERN NORTH CAROLINA NATIONAL WEATHER SERVICE NEWPORT/MOREHEAD CITY NC 1200 AM EDT THU JUL 30 2015 NOTE: "FAIR" INDICATES FEW OR NO CLOUDS BELOW 12,000 FEET WITH NO SIGNIFICANT WEATHER AND/OR OBSTRUCTIONS TO VISIBILITY NCZ015>017-031-032-045>047-102-103-300500- NORTH COAST CITY SKY/WX TMP DP RH WIND PRES REMARKS EDENTON N/A 76 70 82 CALM 30.01S ELIZABETH CITY CLEAR 76 70 82 S5 30.01R KITTY HAWK CLEAR 78 70 75 E3 30.00R MANTEO CLEAR 78 72 82 E3 30.00S $$ NCZ045>047-081-094-103-104-300500- CENTRAL COAST CITY SKY/WX TMP DP RH WIND PRES REMARKS FRISCO PTCLDY 79 75 87 E6 29.98S SWANQUARTER N/A 75 N/A N/A NE2 29.94F $$ NCZ095-097-098-100-101-300500- SOUTHERN COAST CITY SKY/WX TMP DP RH WIND PRES REMARKS BEAUFORT CLEAR 77 76 96 N7 29.97S CEDAR ISLAND N/A 81 N/A N/A E8G14 30.00F JACKSONVILLE CLEAR 77 71 82 NE6 29.97F PINEY ISLAND PTCLDY N/A N/A N/A MISG 29.97S WILMINGTON CLEAR 77 73 87 N5 29.96F $$ NCZ011>013-027>030-043-044-078>080-089-090>093-098-300500- COASTAL PLAIN CITY SKY/WX TMP DP RH WIND PRES REMARKS AHOSKIE CLEAR 74 69 83 SE3 30.01S CLINTON CLEAR 76 72 87 CALM 29.99S ELIZABETHTOWN CLEAR 77 69 77 CALM 29.98F GOLDSBORO CLEAR 76 71 84 E5 29.98R GREENVILLE CLEAR 75 73 94 CALM 30.02S HAVELOCK CLEAR 79 74 84 NE5 29.99S KENANSVILLE CLEAR 71 69 93 CALM 30.00S KINSTON CLEAR 75 71 87 CALM 30.01R NEW BERN CLEAR 75 71 87 CALM 29.99F RICHLANDS CLEAR 72 66 83 CALM 29.98F ROCKY MOUNT CLEAR 78 71 79 SE3 30.00S WASHINGTON CLEAR 74 70 88 CALM 30.00S WHITEVILLE CLEAR 75 71 88 CALM 29.97F $$ AMZ130-135-150-152-154-156-158-170-250-252-270-ANZ085-086-088-633-658-670-300500- MARINE OBSERVATIONS STATION/POSITION TIME TEMP WIND PRES WAVE SWELL AIR SEA DIR/SP/G HT/PER HT/PER (UTC) (F) (DEG/KT/KT) (MB) (FT/S) (FT/S) CHESAPEAKE LIGHT 0400 80 170/ 15/ 16 1016.6 64 E VA BEACH 0350 81 82 160/ 12/ 16 1015.8 2/ 6 2/ 6 DUCK 0300 77 N/A 2 E DUCK 0311 75 N/A 2/11 OREGON INLET 0300 79 N/A 13E OREGON INLT 0400 81 N/A 3/ 5 HATTERAS CG 0300 81 N/A DIAMOND BUOY 0350 83 85 130/ 10/ 10 1015.1 4/ 6 3/ 6 CAPE LOOKOUT 0400 81 40/ 10/ 12 1014.2 BEAUFORT LAB 0300 78 N/A 30 SE NEW RVR IN NOT AVBL 27 SE WRIGHTSVLE 0300 78 82 50/ 10/ 12 N/A 5 SE WRIGHTSVLE 0308 81 82 70/ 12/ 16 1014.6 225 S CAPE HAT 0350 82 82 200/ 17/ 21 1015.6 6/ 7 41 SE CHARLESTON 0350 83 85 60/ 10/ 12 1013.5 3/ 5 3/ 5 $$

USA.gov is the U.S. government's official web portal to all federal, state and local government web resources and services.